TimeCDT,TemperatureF,Dew PointF,Humidity,Sea Level PressureIn,VisibilityMPH,Wind Direction,Wind SpeedMPH,Gust SpeedMPH,PrecipitationIn,Events,Conditions,WindDirDegrees,DateUTC
12:03 AM,55.4,55.4,100,30.00,3.0,South,1.2,-,N/A,,Mostly Cloudy,170,2013-03-31 05:03:00
12:13 AM,55.4,55.4,100,30.00,4.0,South,1.2,-,N/A,,Mostly Cloudy,170,2013-03-31 05:13:00
12:18 AM,55.4,55.4,100,30.00,2.5,Calm,Calm,-,N/A,,Mostly Cloudy,0,2013-03-31 05:18:00
12:23 AM,55.4,55.4,100,29.99,2.0,South,1.2,-,N/A,,Mostly Cloudy,180,2013-03-31 05:23:00
12:28 AM,55.4,55.4,100,30.00,3.0,SSW,1.2,-,N/A,,Mostly Cloudy,200,2013-03-31 05:28:00
12:33 AM,55.4,55.4,100,29.99,1.2,Calm,Calm,-,N/A,,Mostly Cloudy,240,2013-03-31 05:33:00
12:38 AM,55.4,55.4,100,30.00,0.8,South,1.2,-,N/A,,Scattered Clouds,190,2013-03-31 05:38:00
12:43 AM,53.6,53.6,100,30.00,0.5,Calm,Calm,-,N/A,Fog,Fog,340,2013-03-31 05:43:00
12:53 AM,53.6,53.6,100,30.00,0.8,Calm,Calm,-,N/A,,Mostly Cloudy,0,2013-03-31 05:53:00
12:58 AM,52.9,52.9,100,30.01,1.0,Calm,Calm,-,N/A,,Mostly Cloudy,0,2013-03-31 05:58:00
1:03 AM,53.6,53.6,100,30.00,1.2,Calm,Calm,-,N/A,,Mostly Cloudy,0,2013-03-31 06:03:00
1:08 AM,53.6,53.6,100,30.00,0.8,Calm,Calm,-,N/A,,Overcast,0,2013-03-31 06:08:00
1:13 AM,53.6,53.6,100,30.00,0.5,Calm,Calm,-,N/A,Fog,Fog,0,2013-03-31 06:13:00
1:18 AM,53.6,53.6,100,30.00,0.2,Calm,Calm,-,N/A,Fog,Fog,0,2013-03-31 06:18:00
1:23 AM,53.6,53.6,100,29.99,0.5,Calm,Calm,-,N/A,Fog,Fog,0,2013-03-31 06:23:00
1:28 AM,53.6,53.6,100,29.99,0.5,Calm,Calm,-,N/A,Fog,Fog,0,2013-03-31 06:28:00
1:33 AM,51.8,51.8,100,29.99,0.2,East,1.2,-,N/A,Fog,Fog,90,2013-03-31 06:33:00
1:58 AM,51.3,51.3,100,30.00,0.2,South,1.2,-,0.01,Fog,Fog,170,2013-03-31 06:58:00
2:08 AM,51.8,51.8,100,29.99,0.5,South,1.2,-,N/A,Fog,Fog,170,2013-03-31 07:08:00
2:33 AM,51.8,51.8,100,29.98,0.5,SE,1.2,-,N/A,Fog,Fog,130,2013-03-31 07:33:00
2:38 AM,51.8,51.8,100,29.98,0.8,SE,2.3,-,N/A,,Mostly Cloudy,140,2013-03-31 07:38:00
2:43 AM,51.8,51.8,100,29.98,1.2,SE,2.3,-,N/A,,Overcast,140,2013-03-31 07:43:00
2:48 AM,51.8,51.8,100,29.98,3.0,SE,2.3,-,N/A,,Overcast,140,2013-03-31 07:48:00
2:53 AM,51.8,51.8,100,29.98,6.0,SE,3.5,-,N/A,,Overcast,140,2013-03-31 07:53:00
2:58 AM,52.2,52.2,100,29.98,7.0,SE,4.6,-,N/A,,Overcast,140,2013-03-31 07:58:00
3:53 AM,55.4,55.4,100,29.96,9.0,Calm,Calm,-,N/A,,Overcast,0,2013-03-31 08:53:00
3:58 AM,55.4,55.4,100,29.97,9.0,South,2.3,-,N/A,,Overcast,190,2013-03-31 08:58:00
4:03 AM,55.4,55.4,100,29.96,10.0,South,1.2,-,N/A,,Overcast,180,2013-03-31 09:03:00
4:18 AM,55.4,55.4,100,29.95,10.0,South,3.5,-,N/A,,Overcast,170,2013-03-31 09:18:00
4:28 AM,55.4,55.4,100,29.96,10.0,South,2.3,-,N/A,,Overcast,180,2013-03-31 09:28:00
4:58 AM,55.8,55.8,100,29.96,10.0,South,2.3,-,N/A,,Overcast,180,2013-03-31 09:58:00
5:08 AM,55.4,55.4,100,29.95,10.0,South,3.5,-,N/A,,Overcast,180,2013-03-31 10:08:00
5:23 AM,55.4,55.4,100,29.95,10.0,South,3.5,-,N/A,,Overcast,180,2013-03-31 10:23:00
5:35 AM,57.2,57.2,100,29.95,10.0,South,5.8,-,N/A,Rain,Light Rain,190,2013-03-31 10:35:00
5:45 AM,57.2,57.2,100,29.95,10.0,SSW,4.6,-,N/A,Rain,Light Rain,210,2013-03-31 10:45:00
5:58 AM,56.7,56.7,100,29.95,8.0,South,9.2,-,0.01,Rain,Light Rain,180,2013-03-31 10:58:00
6:03 AM,57.2,57.2,100,29.95,7.0,SSW,8.1,-,N/A,Rain-Thunderstorm,Light Rain,200,2013-03-31 11:03:00
6:04 AM,57.2,57.2,100,29.95,7.0,SSW,9.2,-,N/A,Rain-Thunderstorm,Light Thunderstorms and Rain,210,2013-03-31 11:04:00
6:16 AM,57.2,57.2,100,29.95,8.0,WSW,9.2,-,N/A,Rain-Thunderstorm,Light Thunderstorms and Rain,240,2013-03-31 11:16:00
6:22 AM,57.2,57.2,100,29.96,7.0,WSW,10.4,18.4,N/A,Rain,Rain,250,2013-03-31 11:22:00
6:48 AM,57.2,57.2,100,29.90,10.0,SE,8.1,-,N/A,,Mostly Cloudy,130,2013-03-31 11:48:00
6:58 AM,56.7,56.7,100,29.91,10.0,South,11.5,-,0.10,,Scattered Clouds,170,2013-03-31 11:58:00
7:16 AM,57.2,57.2,100,29.95,10.0,NNW,13.8,-,N/A,,Mostly Cloudy,340,2013-03-31 12:16:00
7:19 AM,57.2,57.2,100,29.97,10.0,NW,8.1,-,N/A,,Light Drizzle,310,2013-03-31 12:19:00
7:34 AM,57.2,57.2,100,30.00,10.0,WNW,12.7,-,N/A,Rain,Light Rain,290,2013-03-31 12:34:00
7:39 AM,57.2,57.2,100,30.00,10.0,West,11.5,-,N/A,Rain,Light Rain,270,2013-03-31 12:39:00
7:44 AM,57.2,57.2,100,29.99,10.0,West,11.5,-,N/A,Rain,Light Rain,270,2013-03-31 12:44:00
7:49 AM,57.2,57.2,100,29.99,10.0,WSW,8.1,-,N/A,Rain,Light Rain,250,2013-03-31 12:49:00
7:58 AM,57.0,57.0,100,29.96,10.0,SSW,8.1,-,0.03,Rain,Light Rain,200,2013-03-31 12:58:00
7:59 AM,57.2,57.2,100,29.95,10.0,South,8.1,-,N/A,Rain,Light Rain,190,2013-03-31 12:59:00
8:27 AM,57.2,57.2,100,29.94,10.0,South,9.2,-,N/A,,Partly Cloudy,180,2013-03-31 13:27:00
8:49 AM,57.2,57.2,100,29.95,10.0,South,10.4,-,N/A,,Partly Cloudy,190,2013-03-31 13:49:00
8:58 AM,57.2,57.2,100,29.96,10.0,South,9.2,-,0.01,,Scattered Clouds,190,2013-03-31 13:58:00
9:03 AM,57.2,57.2,100,29.96,10.0,South,8.1,-,N/A,,Mostly Cloudy,190,2013-03-31 14:03:00
9:08 AM,57.2,57.2,100,29.96,10.0,South,9.2,-,N/A,,Scattered Clouds,190,2013-03-31 14:08:00
9:58 AM,59.5,59.5,100,29.95,10.0,South,9.2,-,N/A,,Clear,190,2013-03-31 14:58:00
10:58 AM,62.8,57.9,84,29.97,10.0,SSW,11.5,-,N/A,,Scattered Clouds,200,2013-03-31 15:58:00
11:49 AM,60.8,57.2,88,29.97,10.0,South,4.6,-,N/A,Rain,Light Rain,190,2013-03-31 16:49:00
11:58 AM,60.4,57.4,90,29.99,9.0,SW,9.2,-,0.00,Rain,Light Rain,220,2013-03-31 16:58:00
12:04 PM,60.8,59.0,94,29.98,10.0,SW,8.1,-,N/A,,Overcast,220,2013-03-31 17:04:00
12:19 PM,60.8,59.0,94,29.98,10.0,SW,8.1,-,N/A,,Overcast,220,2013-03-31 17:19:00
12:20 PM,60.8,59.0,94,29.98,10.0,SW,9.2,-,N/A,Rain,Light Rain,220,2013-03-31 17:20:00
12:55 PM,59.0,59.0,100,29.95,4.0,South,6.9,-,N/A,Rain,Rain,180,2013-03-31 17:55:00
12:58 PM,59.4,59.4,100,29.96,4.0,South,6.9,-,0.08,Rain,Rain,180,2013-03-31 17:58:00
1:03 PM,59.0,59.0,100,29.94,6.0,South,8.1,-,N/A,Rain,Light Rain,180,2013-03-31 18:03:00
1:09 PM,60.8,60.8,100,29.94,10.0,South,6.9,-,N/A,,Mostly Cloudy,190,2013-03-31 18:09:00
1:58 PM,65.7,60.6,84,29.95,10.0,SW,9.2,-,0.02,,Partly Cloudy,230,2013-03-31 18:58:00
2:23 PM,66.2,59.0,78,29.94,10.0,SSW,8.1,-,N/A,,Mostly Cloudy,210,2013-03-31 19:23:00
2:43 PM,66.2,59.0,78,29.92,10.0,South,10.4,-,N/A,,Overcast,190,2013-03-31 19:43:00
2:48 PM,66.2,59.0,78,29.91,10.0,South,11.5,20.7,N/A,,Overcast,190,2013-03-31 19:48:00
2:53 PM,68.0,59.0,73,29.91,10.0,South,10.4,20.7,N/A,,Mostly Cloudy,190,2013-03-31 19:53:00
2:58 PM,67.6,59.5,75,29.91,10.0,South,12.7,-,N/A,,Mostly Cloudy,190,2013-03-31 19:58:00
3:08 PM,68.0,59.0,73,29.90,10.0,South,13.8,20.7,N/A,,Scattered Clouds,190,2013-03-31 20:08:00
3:28 PM,66.2,59.0,78,29.91,10.0,SW,12.7,18.4,N/A,,Mostly Cloudy,220,2013-03-31 20:28:00
3:33 PM,66.2,59.0,78,29.91,10.0,SW,12.7,18.4,N/A,,Mostly Cloudy,220,2013-03-31 20:33:00
3:38 PM,66.2,59.0,78,29.91,10.0,WSW,8.1,-,N/A,,Mostly Cloudy,240,2013-03-31 20:38:00
3:48 PM,66.2,59.0,78,29.91,10.0,SW,6.9,-,N/A,,Overcast,230,2013-03-31 20:48:00
3:58 PM,66.2,59.2,78,29.92,10.0,SW,6.9,-,N/A,,Overcast,230,2013-03-31 20:58:00
4:03 PM,66.2,59.0,78,29.90,10.0,SW,6.9,-,N/A,,Overcast,230,2013-03-31 21:03:00
4:48 PM,66.2,60.8,83,29.88,10.0,WSW,4.6,-,N/A,,Overcast,250,2013-03-31 21:48:00
4:53 PM,66.2,59.0,78,29.88,10.0,West,3.5,-,N/A,,Overcast,280,2013-03-31 21:53:00
4:58 PM,66.9,59.7,78,29.88,10.0,WSW,2.3,-,N/A,,Mostly Cloudy,240,2013-03-31 21:58:00
5:03 PM,68.0,59.0,73,29.87,10.0,SW,3.5,-,N/A,,Mostly Cloudy,230,2013-03-31 22:03:00
5:43 PM,66.2,59.0,78,29.87,10.0,South,1.2,-,N/A,,Mostly Cloudy,170,2013-03-31 22:43:00
5:58 PM,66.0,59.9,81,29.88,10.0,SSW,3.5,-,N/A,,Overcast,200,2013-03-31 22:58:00
6:13 PM,66.2,59.0,78,29.87,10.0,SW,2.3,-,N/A,,Overcast,220,2013-03-31 23:13:00
6:18 PM,66.2,59.0,78,29.87,10.0,SW,4.6,-,N/A,,Overcast,220,2013-03-31 23:18:00
6:36 PM,64.4,60.8,88,29.87,10.0,West,4.6,-,N/A,Rain,Light Rain,280,2013-03-31 23:36:00
6:46 PM,64.4,60.8,88,29.87,10.0,NW,6.9,-,N/A,Rain,Light Rain,320,2013-03-31 23:46:00
6:51 PM,64.4,60.8,88,29.87,5.0,WNW,11.5,-,N/A,Rain,Light Rain,300,2013-03-31 23:51:00
6:56 PM,64.4,60.8,88,29.87,1.8,NW,6.9,-,N/A,Rain,Light Rain,310,2013-03-31 23:56:00
6:58 PM,64.2,60.3,87,29.88,1.5,NNW,6.9,-,0.02,Rain,Light Rain,330,2013-03-31 23:58:00
7:03 PM,64.4,60.8,88,29.86,2.5,NW,5.8,-,N/A,Rain,Light Rain,310,2013-04-01 00:03:00
7:05 PM,64.4,60.8,88,29.86,7.0,WNW,5.8,-,N/A,,Overcast,300,2013-04-01 00:05:00
7:07 PM,64.4,60.8,88,29.86,10.0,WNW,5.8,-,N/A,,Light Drizzle,300,2013-04-01 00:07:00
7:17 PM,62.6,62.6,100,29.86,10.0,SW,2.3,-,N/A,,Mostly Cloudy,220,2013-04-01 00:17:00
7:58 PM,61.5,61.5,100,29.89,10.0,NW,2.3,-,0.00,,Overcast,310,2013-04-01 00:58:00
8:23 PM,59.0,59.0,100,29.88,4.0,NNW,5.8,-,N/A,,Mostly Cloudy,340,2013-04-01 01:23:00
8:28 PM,59.0,59.0,100,29.88,1.0,North,5.8,-,N/A,,Mostly Cloudy,350,2013-04-01 01:28:00
8:33 PM,59.0,59.0,100,29.88,0.8,North,4.6,-,N/A,,Mostly Cloudy,350,2013-04-01 01:33:00
8:38 PM,59.0,59.0,100,29.89,0.8,NNW,2.3,-,N/A,,Mostly Cloudy,340,2013-04-01 01:38:00
8:43 PM,59.0,59.0,100,29.89,1.0,NW,1.2,-,N/A,,Mostly Cloudy,310,2013-04-01 01:43:00
8:48 PM,59.0,59.0,100,29.89,0.5,NW,5.8,-,N/A,Fog,Fog,310,2013-04-01 01:48:00
8:53 PM,59.0,59.0,100,29.89,0.5,NW,4.6,-,N/A,Fog,Fog,320,2013-04-01 01:53:00
8:58 PM,59.0,59.0,100,29.91,0.5,NNW,5.8,-,N/A,Fog,Fog,330,2013-04-01 01:58:00
9:08 PM,59.0,59.0,100,29.90,0.8,NNW,2.3,-,N/A,,Partly Cloudy,330,2013-04-01 02:08:00
9:13 PM,59.0,59.0,100,29.90,0.5,NNW,1.2,-,N/A,Fog,Fog,330,2013-04-01 02:13:00
9:18 PM,59.0,59.0,100,29.91,0.5,NW,1.2,-,N/A,Fog,Fog,310,2013-04-01 02:18:00
9:58 PM,57.0,57.0,100,29.94,0.5,NW,5.8,-,N/A,Fog,Fog,310,2013-04-01 02:58:00
10:03 PM,57.2,57.2,100,29.93,0.8,NW,5.8,-,N/A,,Clear,310,2013-04-01 03:03:00
10:08 PM,57.2,57.2,100,29.93,1.0,NW,4.6,-,N/A,,Clear,310,2013-04-01 03:08:00
10:18 PM,55.4,55.4,100,29.93,0.8,NW,4.6,-,N/A,,Clear,310,2013-04-01 03:18:00
10:28 PM,55.4,55.4,100,29.93,0.5,NW,4.6,-,N/A,Fog,Fog,310,2013-04-01 03:28:00
10:33 PM,55.4,55.4,100,29.93,0.5,NW,4.6,-,N/A,Fog,Fog,310,2013-04-01 03:33:00
10:48 PM,55.4,55.4,100,29.93,0.5,WNW,5.8,-,N/A,Fog,Fog,300,2013-04-01 03:48:00
10:53 PM,55.4,55.4,100,29.93,0.5,WNW,5.8,-,N/A,Fog,Fog,300,2013-04-01 03:53:00
10:58 PM,55.2,55.2,100,29.94,0.8,WNW,5.8,-,N/A,,Partly Cloudy,300,2013-04-01 03:58:00
11:03 PM,55.4,55.4,100,29.93,0.8,WNW,4.6,-,N/A,,Partly Cloudy,290,2013-04-01 04:03:00
11:08 PM,55.4,55.4,100,29.93,1.0,WNW,4.6,-,N/A,,Partly Cloudy,300,2013-04-01 04:08:00
11:28 PM,55.4,55.4,100,29.93,0.8,NW,4.6,-,N/A,,Partly Cloudy,310,2013-04-01 04:28:00
11:33 PM,53.6,53.6,100,29.92,0.5,NW,3.5,-,N/A,Fog,Fog,310,2013-04-01 04:33:00
11:38 PM,53.6,53.6,100,29.93,0.5,WNW,3.5,-,N/A,Fog,Fog,300,2013-04-01 04:38:00
11:43 PM,53.6,53.6,100,29.93,0.5,WNW,4.6,-,N/A,Fog,Fog,300,2013-04-01 04:43:00
11:50 PM,53.6,53.6,100,29.93,0.5,WNW,5.8,-,N/A,Fog,Fog,300,2013-04-01 04:50:00
11:55 PM,53.6,53.6,100,29.93,1.0,WNW,5.8,-,N/A,,Mist,300,2013-04-01 04:55:00
11:58 PM,53.6,53.6,100,29.94,1.2,WNW,5.8,-,N/A,,Scattered Clouds,300,2013-04-01 04:58:00